Flag for Kazakhstan Weather past 2 weeks in Aqtobe, Kazakhstan

Now
28 °F

Sunny.


Feels Like: 25 °F
Forecast: 1 / 32 °F
Wind: 3 mph from East

Location: Aktjubinsk

Current Time: Mar 30, 2015 at 7:14:18 PM

Latest Report: Mar 30, 2015 at 6:30 PM


Visibility: 10 mi

Pressure: 30.66 "Hg

Humidity: 55%

Dew point: 14 °F

Location of AqtobeLocation

Historic Weather in Aqtobe — Graph

°F

Aqtobe temperature yesterday

Maximum temperature yesterday: 23 °F (at 3:30 PM)
Minimum temperature yesterday: 1 °F (at 6:30 AM)
Average temperature yesterday: 13 °F

Past Weeks' High & Low Weather Summary

 TemperatureHumidityPressure
High37 °F (Mar 23, 12:30 PM)100% (Mar 16, 3:00 AM)30.89 "Hg (Mar 16, 3:00 AM)
Low0 °F (Mar 30, 6:30 AM)43% (Mar 30, 4:30 PM)29.56 "Hg (Mar 22, 4:00 AM)
Average25 °F84%30.32 "Hg
* Reported Mar 15 6:00 PM — Mar 30 6:00 PM, Aqtobe, Weather by CustomWeather, © 2015

Note: Actual official high and low records may vary slightly from our data, if they occured in-between our weather recording intervals... More about our weather records

Advertising

Aqtobe weather history for previous 24 hours

 ConditionsComfort  
Time TempWeatherWind HumidityBarometerVisibility
6:00 PM
Mon, Mar 30
28 °FSunny.3 mph59%30.66 "Hg10 mi
5:30 PM30 °FSunny.3 mph55%30.69 "Hg10 mi
5:00 PM30 °FSunny.1 mph47%30.69 "Hg10 mi
4:30 PM30 °FSunny.1 mph43%30.72 "Hg10 mi
4:00 PM28 °FSunny.3 mph47%30.72 "Hg10 mi
3:30 PM27 °FPassing clouds.3 mph54%30.72 "HgN/A
3:00 PM28 °FSunny.6 mph51%30.72 "Hg10 mi
2:30 PM27 °FPassing clouds.3 mph54%30.74 "HgN/A
2:00 PM27 °FPassing clouds.3 mph50%30.74 "HgN/A
1:30 PM25 °FSunny.1 mph54%30.74 "Hg10 mi
1:00 PM25 °FPassing clouds.3 mph59%30.74 "HgN/A
12:30 PM23 °FClear.1 mph58%30.77 "Hg4 mi
12:00 PM23 °FClear.3 mph54%30.77 "Hg3 mi
11:30 AM19 °FClear.3 mph63%30.77 "Hg2 mi
11:00 AM18 °FClear.1 mph68%30.77 "Hg3 mi
10:30 AM16 °FClear.1 mph67%30.77 "Hg2 mi
10:00 AM14 °FClear.3 mph67%30.77 "Hg3 mi
9:30 AM10 °FClear.3 mph79%30.77 "Hg3 mi
9:00 AM9 °FSunny.3 mph78%30.77 "Hg10 mi
8:30 AM7 °FSunny.6 mph78%30.80 "Hg10 mi
7:30 AM3 °FSunny.6 mph85%30.80 "Hg10 mi
7:00 AM0 °FSunny.3 mph84%30.80 "Hg10 mi
6:30 AM0 °FClear.3 mph84%30.80 "Hg10 mi
6:00 AM1 °FClear.1 mph85%30.80 "Hg10 mi
5:30 AM1 °FClear.No wind85%30.80 "Hg10 mi
5:00 AM1 °FClear.1 mph85%30.80 "Hg10 mi
4:30 AM1 °FClear.1 mph85%30.80 "Hg10 mi
4:00 AM3 °FClear.No wind85%30.80 "Hg10 mi
3:30 AM3 °FClear.3 mph85%30.80 "Hg10 mi
3:00 AM5 °FClear.1 mph85%30.83 "Hg10 mi
2:30 AM3 °FClear.3 mph92%30.83 "Hg10 mi
2:00 AM7 °FClear.1 mph85%30.83 "Hg10 mi
1:30 AM5 °FClear.1 mph85%30.83 "Hg10 mi
1:00 AM5 °FClear.1 mph92%30.83 "Hg10 mi
12:30 AM7 °FClear.1 mph85%30.83 "Hg10 mi
12:00 AM7 °FPassing clouds.3 mph92%30.83 "HgN/A
11:30 PM
Sun, Mar 29
9 °FClear.1 mph85%30.83 "Hg10 mi
11:00 PM9 °FPassing clouds.3 mph85%30.83 "HgN/A
10:30 PM10 °FClear.3 mph85%30.86 "Hg10 mi
10:00 PM12 °FClear.3 mph79%30.86 "Hg10 mi
9:30 PM12 °FClear.3 mph79%30.86 "Hg10 mi
9:00 PM12 °FPassing clouds.3 mph73%30.86 "HgN/A
8:30 PM16 °FClear.6 mph62%30.86 "Hg10 mi
8:00 PM18 °FClear.6 mph58%30.83 "Hg10 mi
7:30 PM19 °FSunny.8 mph49%30.83 "Hg10 mi
7:00 PM19 °FSunny.6 mph53%30.83 "Hg10 mi
Weather by CustomWeather, © 2015

See weather overviewHow to use our weather pages